CST,Max TemperatureF,Mean TemperatureF,Min TemperatureF,Max Dew PointF,MeanDew PointF,Min DewpointF,Max Humidity, Mean Humidity, Min Humidity, Max Sea Level PressureIn, Mean Sea Level PressureIn, Min Sea Level PressureIn, Max VisibilityMiles, Mean VisibilityMiles, Min VisibilityMiles, Max Wind SpeedMPH, Mean Wind SpeedMPH, Max Gust SpeedMPH,PrecipitationIn, CloudCover, Events, WindDirDegrees
2011-12-1,48,38,27,34,29,23,89,73,56,30.32,30.28,30.23,10,10,10,13,6,16,0.00,0,,192
2011-12-2,43,37,30,37,33,30,100,88,76,30.49,30.42,30.32,10,7,3,17,8,21,0.00,6,,74
2011-12-3,57,50,42,43,39,37,82,67,51,30.34,30.20,29.99,10,10,9,21,13,28,0.05,5,Rain,170
2011-12-4,54,44,34,52,43,32,93,84,74,30.28,30.10,29.94,10,9,5,23,12,31,0.17,8,Rain,275
2011-12-5,37,35,32,34,31,28,96,89,82,30.29,30.25,30.20,10,8,6,21,14,24,T,8,,352
2011-12-6,38,34,29,34,30,27,96,83,70,30.27,30.21,30.16,10,9,6,17,9,21,0.00,7,,34
2011-12-7,36,31,25,31,24,15,100,72,44,30.20,30.14,30.11,10,8,2,17,9,21,0.00,4,,280
2011-12-8,41,32,23,32,26,19,96,76,55,30.30,30.23,30.20,10,10,10,13,4,21,0.00,5,,235
2011-12-9,35,28,20,31,23,5,92,67,42,30.53,30.32,30.20,10,7,2,17,10,23,T,5,Snow,338
2011-12-10,31,23,15,19,12,3,81,62,42,30.62,30.56,30.52,10,10,10,12,7,15,0.00,0,,240
2011-12-11,44,34,24,27,23,18,85,69,53,30.53,30.47,30.40,10,10,10,16,9,21,0.00,0,,180
2011-12-12,47,35,23,33,24,18,88,61,34,30.46,30.41,30.36,10,10,10,12,6,15,0.00,3,,164
2011-12-13,44,41,38,44,39,33,100,85,70,30.46,30.38,30.25,10,5,1,13,6,17,0.17,8,Rain,185
2011-12-14,58,51,44,56,50,44,100,97,93,30.24,30.00,29.78,10,7,3,25,16,32,0.43,8,Rain,187
2011-12-15,59,46,32,57,43,24,93,79,64,30.32,29.95,29.75,10,10,3,25,16,35,0.07,7,Rain,271
2011-12-16,36,30,24,25,24,21,92,77,61,30.45,30.38,30.31,10,10,7,16,6,22,0.00,2,,331
2011-12-17,40,32,24,31,28,22,92,81,70,30.40,30.29,30.22,10,9,7,18,7,22,0.00,5,,236
2011-12-18,50,37,24,37,32,24,92,77,61,30.29,30.18,30.01,10,10,8,22,11,29,0.00,1,,216
2011-12-19,51,47,42,47,43,37,100,83,65,30.15,30.06,29.98,10,7,4,18,12,24,0.40,8,Rain,256
2011-12-20,46,42,38,46,42,37,100,96,92,30.14,29.94,29.74,10,4,0,17,9,21,0.37,8,Fog-Rain,104
2011-12-21,45,39,32,45,41,34,100,93,85,30.01,29.81,29.69,10,7,0,16,7,21,0.01,7,Fog-Rain,259
2011-12-22,41,35,29,37,34,30,100,93,85,30.25,30.10,30.01,10,6,0,20,6,23,0.00,4,Fog,320
2011-12-23,36,32,27,30,25,21,92,78,64,30.41,30.34,30.26,10,10,10,18,9,23,0.00,6,,301
2011-12-24,40,32,23,30,26,19,92,76,59,30.42,30.35,30.29,10,10,10,17,9,21,0.00,0,,221
2011-12-25,47,39,30,32,28,26,85,69,53,30.39,30.29,30.23,10,10,10,22,11,30,0.00,0,,270
2011-12-26,43,33,22,36,30,20,100,81,62,30.38,30.18,29.90,10,9,5,18,7,23,0.15,3,Rain,192
2011-12-27,40,36,31,36,33,27,100,85,70,30.04,29.78,29.65,10,6,2,24,12,33,0.25,7,Rain-Snow,270
2011-12-28,37,32,27,32,28,25,89,80,70,30.12,30.03,29.87,10,10,10,17,8,22,0.00,3,,232
2011-12-29,54,46,37,40,36,32,89,73,56,29.86,29.73,29.65,10,10,10,26,12,33,0.00,2,,219
2011-12-30,48,43,38,45,41,37,100,88,76,29.88,29.64,29.51,10,9,4,26,16,36,0.18,7,Rain,246
2011-12-31,50,44,37,43,39,36,100,86,71,30.06,29.92,29.68,10,9,7,24,13,32,0.00,5,,189